Terminal Aerodrome Forecast
Issued by NWS

Home | Current Version | Previous Version | Text Only | Print | Product List | Glossary Off
Versions: 1 2 3 4 5 6 7 8 9 10 11 12 13 14

000
FTUS43 KBIS 251733
TAFJMS
TAF
KJMS 251733Z 2518/2618 20009KT P6SM -SHRA VCTS SCT080CB BKN150
     FM252000 20010KT P6SM BKN070
     FM260300 19006KT P6SM BKN100=

USA.gov is the U.S. government's official web portal to all federal, state and local government web resources and services.